Location: Bamobli
(6.6379°N, 10.9396°W)
Time: 14:54:51
(UTC+00:00)

NOSS 0 Rocket - Pass Details

Date: 07 June 2020
Orbit: 936 x 954 km, 70.0° (Epoch: 04 July)

Event Time Altitude Azimuth Distance (km) Brightness Sun altitude
Exits shadow 04:20:35 52° 326° (NW) 1,148 4.2 -29.2°
Drops below altitude 10° 04:25:34 10° 6° (N) 2,637 6.7 -28.1°
Sets 04:28:07 0° 10° (N) 3,579 7.5 -27.6°
